| time (UTC) | temp C | wind direction | speed KPH | gust KPH | rain 1hr cm | rain 24hr cm | rain mn cm | humidity % | barometer mb |
| 20260508154921 | 15 | 156 | 0.0 | 0.0 | 0.00 | 0.00 | 0.00 | 58 | 1016.5 |
| 20260508154419 | 15 | 150 | 1.6 | 1.6 | 0.00 | 0.00 | 0.00 | 59 | 1016.5 |
| 20260508153915 | 15 | 155 | 4.8 | 4.8 | 0.00 | 0.00 | 0.00 | 57 | 1016.6 |
| 20260508153412 | 15 | 170 | 4.8 | 4.8 | 0.00 | 0.00 | 0.00 | 58 | 1016.6 |
| 20260508152908 | 15 | 165 | 1.6 | 1.6 | 0.00 | 0.00 | 0.00 | 59 | 1016.8 |
| 20260508152405 | 14 | 142 | 1.6 | 1.6 | 0.00 | 0.00 | 0.00 | 60 | 1016.8 |
| 20260508151902 | 14 | 154 | 1.6 | 3.2 | 0.00 | 0.00 | 0.00 | 64 | 1016.7 |
| 20260508151359 | 14 | 151 | 0.0 | 0.0 | 0.00 | 0.00 | 0.00 | 66 | 1017.1 |
| 20260508150854 | 14 | 149 | 1.6 | 3.2 | 0.00 | 0.00 | 0.00 | 63 | 1017.0 |
| 20260508150352 | 13 | 147 | 0.0 | 0.0 | 0.00 | 0.00 | 0.00 | 63 | 1017.2 |
| 20260508145848 | 13 | 139 | 0.0 | 0.0 | 0.00 | 0.00 | 0.00 | 66 | 1017.2 |
| 20260508145344 | 13 | 148 | 0.0 | 0.0 | 0.00 | 0.00 | 0.00 | 65 | 1017.3 |
| 20260508144841 | 12 | 177 | 0.0 | 0.0 | 0.00 | 0.00 | 0.00 | 70 | 1017.1 |
| 20260508144339 | 12 | 152 | 0.0 | 0.0 | 0.00 | 0.00 | 0.00 | 69 | 1017.2 |
| 20260508143836 | 12 | 144 | 0.0 | 1.6 | 0.00 | 0.00 | 0.00 | 65 | 1017.2 |
| 20260508143333 | 12 | 150 | 0.0 | 0.0 | 0.00 | 0.00 | 0.00 | 69 | 1017.3 |
| 20260508142830 | 12 | 148 | 0.0 | 1.6 | 0.00 | 0.00 | 0.00 | 65 | 1017.2 |
| 20260508142327 | 12 | 172 | 0.0 | 0.0 | 0.00 | 0.00 | 0.00 | 66 | 1017.2 |
| 20260508141823 | 12 | 156 | 0.0 | 1.6 | 0.00 | 0.00 | 0.00 | 66 | 1017.1 |
| 20260508141320 | 12 | 158 | 0.0 | 0.0 | 0.00 | 0.00 | 0.00 | 68 | 1017.3 |
| 20260508140818 | 12 | 146 | 0.0 | 0.0 | 0.00 | 0.00 | 0.00 | 64 | 1017.2 |
| 20260508140314 | 12 | 137 | 1.6 | 3.2 | 0.00 | 0.00 | 0.00 | 66 | 1017.2 |
| 20260508135810 | 12 | 146 | 0.0 | 0.0 | 0.00 | 0.00 | 0.00 | 69 | 1017.1 |
| 20260508135307 | 12 | 151 | 0.0 | 0.0 | 0.00 | 0.00 | 0.00 | 67 | 1016.9 |
| 20260508134802 | 12 | 151 | 0.0 | 0.0 | 0.00 | 0.00 | 0.00 | 63 | 1017.2 |
| 20260508134300 | 12 | 162 | 0.0 | 0.0 | 0.00 | 0.00 | 0.00 | 65 | 1017.2 |
| 20260508133756 | 12 | 153 | 0.0 | 0.0 | 0.00 | 0.00 | 0.00 | 66 | 1016.9 |
| 20260508133254 | 12 | 150 | 3.2 | 4.8 | 0.00 | 0.00 | 0.00 | 62 | 1017.1 |
| 20260508132751 | 12 | 162 | 0.0 | 0.0 | 0.00 | 0.00 | 0.00 | 65 | 1017.1 |
| 20260508132249 | 12 | 144 | 0.0 | 1.6 | 0.00 | 0.00 | 0.00 | 64 | 1017.1 |
| 20260508131744 | 12 | 160 | 0.0 | 0.0 | 0.00 | 0.00 | 0.00 | 65 | 1017.1 |
| 20260508131241 | 12 | 158 | 0.0 | 0.0 | 0.00 | 0.00 | 0.00 | 63 | 1017.4 |
| 20260508130737 | 12 | 158 | 1.6 | 3.2 | 0.00 | 0.00 | 0.00 | 63 | 1017.1 |
| 20260508130235 | 12 | 197 | 1.6 | 1.6 | 0.00 | 0.00 | 0.00 | 66 | 1016.9 |
| 20260508125730 | 11 | 152 | 1.6 | 1.6 | 0.00 | 0.00 | 0.00 | 64 | 1017.1 |
| 20260508125227 | 11 | 166 | 1.6 | 3.2 | 0.00 | 0.00 | 0.00 | 69 | 1017.3 |
| 20260508124725 | 11 | 155 | 0.0 | 0.0 | 0.00 | 0.00 | 0.00 | 68 | 1017.0 |
| 20260508124222 | 11 | 156 | 0.0 | 0.0 | 0.00 | 0.00 | 0.00 | 69 | 1016.9 |
| 20260508123720 | 11 | 147 | 1.6 | 3.2 | 0.00 | 0.00 | 0.00 | 67 | 1017.1 |
| 20260508123218 | 11 | 154 | 0.0 | 0.0 | 0.00 | 0.00 | 0.00 | 70 | 1016.9 |
| 20260508122714 | 11 | 158 | 0.0 | 0.0 | 0.00 | 0.00 | 0.00 | 70 | 1017.1 |
| 20260508122211 | 10 | 159 | 0.0 | 1.6 | 0.00 | 0.00 | 0.00 | 66 | 1016.9 |
| 20260508121709 | 10 | 150 | 0.0 | 0.0 | 0.00 | 0.00 | 0.00 | 70 | 1017.2 |
| 20260508121207 | 10 | 151 | 0.0 | 0.0 | 0.00 | 0.00 | 0.00 | 71 | 1016.8 |
| 20260508120704 | 10 | 166 | 0.0 | 0.0 | 0.00 | 0.00 | 0.00 | 72 | 1017.1 |
| 20260508120202 | 10 | 152 | 0.0 | 0.0 | 0.00 | 0.00 | 0.00 | 76 | 1016.8 |
| 20260508115659 | 10 | 144 | 1.6 | 1.6 | 0.00 | 0.00 | 0.00 | 73 | 1016.9 |
| 20260508115156 | 10 | 158 | 0.0 | 0.0 | 0.00 | 0.00 | 0.00 | 75 | 1017.1 |
| 20260508114653 | 9 | 152 | 0.0 | 0.0 | 0.00 | 0.00 | 0.00 | 73 | 1017.1 |
| 20260508114149 | 8 | 150 | 0.0 | 0.0 | 0.00 | 0.00 | 0.00 | 75 | 1016.9 |
| 20260508113646 | 8 | 151 | 0.0 | 0.0 | 0.00 | 0.00 | 0.00 | 79 | 1016.8 |
| 20260508113145 | 7 | 236 | 3.2 | 4.8 | 0.00 | 0.00 | 0.00 | 83 | 1016.7 |
| 20260508112640 | 7 | 140 | 0.0 | 0.0 | 0.00 | 0.00 | 0.00 | 86 | 1016.7 |
| 20260508112138 | 6 | 145 | 0.0 | 0.0 | 0.00 | 0.00 | 0.00 | 88 | 1016.8 |
| 20260508111634 | 6 | 144 | 0.0 | 0.0 | 0.00 | 0.00 | 0.00 | 91 | 1016.8 |
| 20260508111132 | 6 | 143 | 0.0 | 0.0 | 0.00 | 0.00 | 0.00 | 91 | 1016.7 |
| 20260508110629 | 6 | 143 | 0.0 | 0.0 | 0.00 | 0.00 | 0.00 | 92 | 1016.8 |
| 20260508110125 | 5 | 143 | 0.0 | 0.0 | 0.00 | 0.00 | 0.00 | 92 | 1016.8 |
| 20260508105620 | 5 | 144 | 0.0 | 0.0 | 0.00 | 0.00 | 0.00 | 93 | 1016.6 |
| 20260508105117 | 5 | 144 | 0.0 | 0.0 | 0.00 | 0.00 | 0.00 | 93 | 1016.6 |
| 20260508104615 | 5 | 144 | 0.0 | 0.0 | 0.00 | 0.00 | 0.00 | 93 | 1016.5 |
| 20260508104111 | 5 | 144 | 0.0 | 0.0 | 0.00 | 0.00 | 0.00 | 93 | 1016.5 |
| 20260508103608 | 5 | 144 | 0.0 | 0.0 | 0.00 | 0.00 | 0.00 | 92 | 1016.5 |
| 20260508103106 | 5 | 144 | 0.0 | 0.0 | 0.00 | 0.00 | 0.00 | 93 | 1016.2 |
| 20260508102603 | 5 | 144 | 0.0 | 0.0 | 0.00 | 0.00 | 0.00 | 93 | 1016.3 |
| 20260508102100 | 5 | 145 | 0.0 | 0.0 | 0.00 | 0.00 | 0.00 | 93 | 1016.3 |
| 20260508101558 | 5 | 145 | 0.0 | 0.0 | 0.00 | 0.00 | 0.00 | 93 | 1016.3 |
| 20260508101055 | 5 | 144 | 0.0 | 0.0 | 0.00 | 0.00 | 0.00 | 93 | 1016.1 |
| 20260508100553 | 5 | 144 | 0.0 | 0.0 | 0.00 | 0.00 | 0.00 | 93 | 1016.1 |
| 20260508100050 | 5 | 144 | 0.0 | 0.0 | 0.00 | 0.00 | 0.00 | 93 | 1016.2 |
| 20260508095547 | 5 | 144 | 0.0 | 0.0 | 0.00 | 0.00 | 0.00 | 93 | 1016.2 |
| 20260508095043 | 5 | 144 | 0.0 | 0.0 | 0.00 | 0.00 | 0.00 | 93 | 1016.1 |
| 20260508094541 | 5 | 144 | 0.0 | 0.0 | 0.00 | 0.00 | 0.00 | 92 | 1016.2 |
| 20260508094038 | 5 | 144 | 0.0 | 0.0 | 0.00 | 0.00 | 0.00 | 93 | 1016.2 |
| 20260508093534 | 5 | 144 | 0.0 | 0.0 | 0.00 | 0.00 | 0.00 | 93 | 1016.2 |
| 20260508093032 | 5 | 144 | 0.0 | 0.0 | 0.00 | 0.00 | 0.00 | 93 | 1016.3 |
| 20260508092529 | 5 | 144 | 0.0 | 0.0 | 0.00 | 0.00 | 0.00 | 94 | 1016.3 |
| 20260508092028 | 5 | 145 | 0.0 | 0.0 | 0.00 | 0.00 | 0.00 | 94 | 1016.2 |
| 20260508091525 | 6 | 144 | 0.0 | 0.0 | 0.00 | 0.00 | 0.00 | 94 | 1016.4 |
| 20260508091021 | 6 | 144 | 0.0 | 0.0 | 0.00 | 0.00 | 0.00 | 94 | 1016.3 |
| 20260508090520 | 6 | 144 | 0.0 | 0.0 | 0.00 | 0.00 | 0.00 | 95 | 1016.4 |
| 20260508090016 | 6 | 143 | 0.0 | 0.0 | 0.00 | 0.00 | 0.00 | 95 | 1016.5 |
| 20260508085513 | 6 | 144 | 0.0 | 0.0 | 0.00 | 0.00 | 0.00 | 96 | 1016.5 |
| 20260508085010 | 6 | 144 | 0.0 | 0.0 | 0.00 | 0.00 | 0.00 | 96 | 1016.6 |
| 20260508084507 | 6 | 144 | 0.0 | 0.0 | 0.00 | 0.00 | 0.00 | 96 | 1016.4 |
| 20260508084004 | 6 | 144 | 0.0 | 0.0 | 0.00 | 0.00 | 0.00 | 97 | 1016.5 |
| 20260508083501 | 6 | 144 | 0.0 | 0.0 | 0.00 | 0.00 | 0.00 | 97 | 1016.4 |
| 20260508082956 | 6 | 144 | 0.0 | 0.0 | 0.00 | 0.00 | 0.00 | 97 | 1016.5 |
| 20260508082453 | 6 | 145 | 0.0 | 0.0 | 0.00 | 0.00 | 0.00 | 96 | 1016.3 |
| 20260508081951 | 6 | 145 | 0.0 | 0.0 | 0.00 | 0.00 | 0.00 | 96 | 1016.3 |
| 20260508081448 | 6 | 147 | 0.0 | 0.0 | 0.00 | 0.00 | 0.00 | 96 | 1016.4 |
| 20260508080944 | 6 | 146 | 0.0 | 0.0 | 0.00 | 0.00 | 0.00 | 96 | 1016.3 |
| 20260508080442 | 6 | 146 | 0.0 | 0.0 | 0.00 | 0.00 | 0.00 | 96 | 1016.5 |
| 20260508075939 | 6 | 147 | 0.0 | 0.0 | 0.00 | 0.00 | 0.00 | 95 | 1016.3 |
| 20260508075436 | 6 | 146 | 0.0 | 0.0 | 0.00 | 0.00 | 0.00 | 95 | 1016.5 |
| 20260508074933 | 7 | 144 | 0.0 | 0.0 | 0.00 | 0.00 | 0.00 | 94 | 1016.5 |
| 20260508074431 | 7 | 139 | 0.0 | 0.0 | 0.00 | 0.00 | 0.00 | 94 | 1016.6 |
| 20260508073927 | 7 | 147 | 0.0 | 0.0 | 0.00 | 0.00 | 0.00 | 93 | 1016.5 |
| 20260508073425 | 7 | 146 | 0.0 | 0.0 | 0.00 | 0.00 | 0.00 | 93 | 1016.6 |
| 20260508072922 | 7 | 147 | 0.0 | 0.0 | 0.00 | 0.00 | 0.00 | 93 | 1016.3 |
| 20260508072418 | 7 | 146 | 0.0 | 0.0 | 0.00 | 0.00 | 0.00 | 92 | 1016.6 |
| 20260508071916 | 7 | 146 | 0.0 | 0.0 | 0.00 | 0.00 | 0.00 | 92 | 1016.6 |
| 20260508071413 | 7 | 146 | 0.0 | 0.0 | 0.00 | 0.00 | 0.00 | 90 | 1016.8 |
| 20260508070911 | 8 | 144 | 0.0 | 0.0 | 0.00 | 0.00 | 0.00 | 90 | 1016.8 |
| 20260508070409 | 8 | 145 | 0.0 | 0.0 | 0.00 | 0.00 | 0.00 | 89 | 1017.0 |
| 20260508065906 | 8 | 147 | 0.0 | 0.0 | 0.00 | 0.00 | 0.00 | 89 | 1017.1 |
| 20260508065404 | 8 | 147 | 0.0 | 0.0 | 0.00 | 0.00 | 0.00 | 89 | 1017.0 |
| 20260508064902 | 8 | 146 | 0.0 | 0.0 | 0.00 | 0.00 | 0.00 | 89 | 1016.9 |
| 20260508064359 | 8 | 139 | 0.0 | 0.0 | 0.00 | 0.00 | 0.00 | 87 | 1017.1 |
| 20260508063857 | 8 | 142 | 0.0 | 0.0 | 0.00 | 0.00 | 0.00 | 86 | 1017.0 |
| 20260508063354 | 8 | 146 | 0.0 | 0.0 | 0.00 | 0.00 | 0.00 | 87 | 1017.1 |
| 20260508062851 | 8 | 144 | 0.0 | 0.0 | 0.00 | 0.00 | 0.00 | 87 | 1017.3 |
| 20260508062349 | 8 | 145 | 0.0 | 0.0 | 0.00 | 0.00 | 0.00 | 86 | 1017.2 |
| 20260508061846 | 8 | 150 | 0.0 | 0.0 | 0.00 | 0.00 | 0.00 | 84 | 1017.4 |
| 20260508061343 | 8 | 156 | 0.0 | 0.0 | 0.00 | 0.00 | 0.00 | 86 | 1017.5 |
| 20260508060839 | 8 | 116 | 0.0 | 0.0 | 0.00 | 0.00 | 0.00 | 87 | 1017.4 |
| 20260508060337 | 8 | 141 | 0.0 | 0.0 | 0.00 | 0.00 | 0.00 | 87 | 1017.3 |
| 20260508055832 | 8 | 141 | 0.0 | 0.0 | 0.00 | 0.00 | 0.00 | 86 | 1017.4 |
| 20260508055330 | 8 | 147 | 0.0 | 0.0 | 0.00 | 0.00 | 0.00 | 86 | 1017.1 |
| 20260508054826 | 8 | 137 | 0.0 | 0.0 | 0.00 | 0.00 | 0.00 | 87 | 1017.1 |
| 20260508054324 | 8 | 146 | 0.0 | 0.0 | 0.00 | 0.00 | 0.00 | 82 | 1016.9 |
| 20260508053821 | 8 | 147 | 0.0 | 0.0 | 0.00 | 0.00 | 0.00 | 82 | 1016.7 |
| 20260508053318 | 8 | 146 | 0.0 | 0.0 | 0.00 | 0.00 | 0.00 | 82 | 1016.9 |
| 20260508052815 | 8 | 146 | 0.0 | 0.0 | 0.00 | 0.00 | 0.00 | 83 | 1016.9 |
| 20260508052312 | 8 | 145 | 0.0 | 0.0 | 0.00 | 0.00 | 0.00 | 84 | 1016.7 |
| 20260508051808 | 8 | 145 | 0.0 | 0.0 | 0.00 | 0.00 | 0.00 | 84 | 1016.6 |
| 20260508051304 | 7 | 146 | 0.0 | 0.0 | 0.00 | 0.00 | 0.00 | 84 | 1016.9 |
| 20260508050801 | 7 | 147 | 0.0 | 0.0 | 0.00 | 0.00 | 0.00 | 84 | 1016.7 |
| 20260508050258 | 8 | 147 | 0.0 | 0.0 | 0.00 | 0.00 | 0.00 | 84 | 1016.7 |
| 20260508045753 | 8 | 146 | 0.0 | 0.0 | 0.00 | 0.00 | 0.00 | 83 | 1016.8 |
| 20260508045251 | 8 | 147 | 0.0 | 0.0 | 0.00 | 0.00 | 0.00 | 83 | 1016.7 |
| 20260508044749 | 7 | 147 | 0.0 | 0.0 | 0.00 | 0.00 | 0.00 | 83 | 1016.9 |
| 20260508044245 | 7 | 146 | 0.0 | 0.0 | 0.00 | 0.00 | 0.00 | 83 | 1016.9 |
| 20260508043741 | 8 | 146 | 0.0 | 0.0 | 0.00 | 0.00 | 0.00 | 83 | 1016.9 |
| 20260508043239 | 8 | 146 | 0.0 | 0.0 | 0.00 | 0.00 | 0.00 | 83 | 1016.8 |
| 20260508042735 | 8 | 139 | 0.0 | 0.0 | 0.00 | 0.00 | 0.00 | 83 | 1017.1 |
| 20260508042233 | 7 | 146 | 0.0 | 0.0 | 0.00 | 0.00 | 0.00 | 83 | 1017.2 |
| 20260508041729 | 7 | 147 | 0.0 | 0.0 | 0.00 | 0.00 | 0.00 | 83 | 1017.3 |
| 20260508041226 | 7 | 147 | 0.0 | 0.0 | 0.00 | 0.00 | 0.00 | 86 | 1017.0 |
| 20260508040723 | 7 | 147 | 0.0 | 0.0 | 0.00 | 0.00 | 0.00 | 87 | 1016.9 |
| 20260508040220 | 7 | 146 | 0.0 | 0.0 | 0.00 | 0.00 | 0.00 | 84 | 1017.1 |
| 20260508035717 | 7 | 146 | 0.0 | 0.0 | 0.00 | 0.00 | 0.00 | 83 | 1017.0 |
| 20260508035215 | 7 | 145 | 0.0 | 0.0 | 0.00 | 0.00 | 0.00 | 83 | 1016.9 |
| 20260508034711 | 7 | 145 | 0.0 | 0.0 | 0.00 | 0.00 | 0.00 | 83 | 1016.8 |
| 20260508034209 | 7 | 146 | 0.0 | 0.0 | 0.00 | 0.00 | 0.00 | 82 | 1016.7 |
| 20260508033705 | 7 | 146 | 0.0 | 0.0 | 0.00 | 0.00 | 0.00 | 82 | 1016.9 |
| 20260508033204 | 7 | 146 | 0.0 | 0.0 | 0.00 | 0.00 | 0.00 | 83 | 1017.2 |
| 20260508032701 | 7 | 145 | 0.0 | 0.0 | 0.00 | 0.00 | 0.00 | 84 | 1016.7 |
| 20260508032158 | 8 | 146 | 0.0 | 0.0 | 0.00 | 0.00 | 0.00 | 84 | 1017.1 |
| 20260508031654 | 7 | 144 | 0.0 | 0.0 | 0.00 | 0.00 | 0.00 | 82 | 1017.0 |
| 20260508031150 | 7 | 147 | 0.0 | 0.0 | 0.00 | 0.00 | 0.00 | 80 | 1016.8 |
| 20260508030647 | 7 | 146 | 0.0 | 0.0 | 0.00 | 0.00 | 0.00 | 79 | 1016.7 |
| 20260508030145 | 7 | 147 | 0.0 | 0.0 | 0.00 | 0.00 | 0.00 | 79 | 1016.9 |
| 20260508025641 | 7 | 146 | 0.0 | 0.0 | 0.00 | 0.00 | 0.00 | 79 | 1016.7 |
| 20260508025138 | 7 | 146 | 0.0 | 0.0 | 0.00 | 0.00 | 0.00 | 80 | 1016.9 |
| 20260508024634 | 7 | 146 | 0.0 | 0.0 | 0.00 | 0.00 | 0.00 | 79 | 1016.9 |
| 20260508024131 | 7 | 145 | 0.0 | 0.0 | 0.00 | 0.00 | 0.00 | 77 | 1016.8 |
| 20260508023627 | 7 | 145 | 0.0 | 0.0 | 0.00 | 0.00 | 0.00 | 75 | 1017.0 |
| 20260508023125 | 7 | 145 | 0.0 | 0.0 | 0.00 | 0.00 | 0.00 | 75 | 1016.9 |
| 20260508022621 | 7 | 146 | 0.0 | 0.0 | 0.00 | 0.00 | 0.00 | 74 | 1016.8 |
| 20260508022118 | 7 | 145 | 0.0 | 0.0 | 0.00 | 0.00 | 0.00 | 73 | 1016.6 |
| 20260508021614 | 8 | 146 | 0.0 | 0.0 | 0.00 | 0.00 | 0.00 | 73 | 1016.8 |
| 20260508021110 | 8 | 145 | 0.0 | 0.0 | 0.00 | 0.00 | 0.00 | 73 | 1016.9 |
| 20260508020608 | 8 | 145 | 0.0 | 0.0 | 0.00 | 0.00 | 0.00 | 72 | 1016.6 |
| 20260508020105 | 8 | 145 | 0.0 | 0.0 | 0.00 | 0.00 | 0.00 | 72 | 1017.0 |
| 20260508015603 | 8 | 146 | 0.0 | 0.0 | 0.00 | 0.00 | 0.00 | 71 | 1016.9 |
| 20260508015059 | 8 | 147 | 0.0 | 0.0 | 0.00 | 0.00 | 0.00 | 71 | 1017.0 |
| 20260508014555 | 8 | 146 | 0.0 | 0.0 | 0.00 | 0.00 | 0.00 | 70 | 1016.6 |
| 20260508014052 | 8 | 145 | 0.0 | 0.0 | 0.00 | 0.00 | 0.00 | 71 | 1016.7 |
| 20260508013548 | 8 | 145 | 0.0 | 0.0 | 0.00 | 0.00 | 0.00 | 70 | 1016.8 |
| 20260508013045 | 8 | 145 | 0.0 | 0.0 | 0.00 | 0.00 | 0.00 | 69 | 1016.9 |
| 20260508012542 | 9 | 145 | 0.0 | 0.0 | 0.00 | 0.00 | 0.00 | 67 | 1016.7 |
| 20260508012040 | 10 | 145 | 0.0 | 0.0 | 0.00 | 0.00 | 0.00 | 67 | 1016.7 |
| 20260508011538 | 10 | 146 | 0.0 | 0.0 | 0.00 | 0.00 | 0.00 | 65 | 1016.8 |
| 20260508011035 | 10 | 146 | 0.0 | 0.0 | 0.00 | 0.00 | 0.00 | 66 | 1016.7 |
| 20260508010531 | 10 | 146 | 0.0 | 0.0 | 0.00 | 0.00 | 0.00 | 65 | 1016.7 |
| 20260508010029 | 10 | 147 | 0.0 | 0.0 | 0.00 | 0.00 | 0.00 | 64 | 1016.5 |
| 20260508005525 | 10 | 147 | 0.0 | 0.0 | 0.00 | 0.00 | 0.00 | 60 | 1016.5 |
| 20260508005022 | 11 | 147 | 0.0 | 0.0 | 0.00 | 0.00 | 0.00 | 60 | 1016.3 |
| 20260508004518 | 11 | 149 | 0.0 | 0.0 | 0.00 | 0.00 | 0.00 | 59 | 1016.3 |
| 20260508004015 | 11 | 149 | 0.0 | 0.0 | 0.00 | 0.00 | 0.00 | 60 | 1016.0 |
| 20260508003512 | 11 | 150 | 0.0 | 0.0 | 0.00 | 0.00 | 0.00 | 60 | 1016.6 |
| 20260508003009 | 11 | 149 | 0.0 | 0.0 | 0.00 | 0.00 | 0.00 | 56 | 1016.3 |
| 20260508002505 | 11 | 145 | 0.0 | 0.0 | 0.00 | 0.00 | 0.00 | 57 | 1016.4 |
| 20260508002003 | 11 | 145 | 0.0 | 0.0 | 0.00 | 0.00 | 0.00 | 54 | 1016.4 |
| 20260508001458 | 12 | 145 | 0.0 | 0.0 | 0.00 | 0.00 | 0.00 | 53 | 1016.1 |
| 20260508000955 | 12 | 148 | 0.0 | 0.0 | 0.00 | 0.00 | 0.00 | 54 | 1015.9 |
| 20260508000450 | 12 | 145 | 0.0 | 0.0 | 0.00 | 0.00 | 0.00 | 49 | 1016.0 |
| 20260507235948 | 12 | 139 | 0.0 | 0.0 | 0.00 | 0.00 | 0.00 | 52 | 1016.0 |
| 20260507235445 | 13 | 143 | 0.0 | 0.0 | 0.00 | 0.00 | 0.00 | 52 | 1016.0 |
| 20260507234942 | 13 | 17 | 0.0 | 1.6 | 0.00 | 0.00 | 0.00 | 49 | 1015.8 |
| 20260507234438 | 13 | 142 | 0.0 | 0.0 | 0.00 | 0.00 | 0.00 | 46 | 1015.8 |
| 20260507233935 | 13 | 139 | 0.0 | 0.0 | 0.00 | 0.00 | 0.00 | 47 | 1015.8 |
| 20260507233432 | 13 | 171 | 0.0 | 0.0 | 0.00 | 0.00 | 0.00 | 49 | 1016.1 |
| 20260507232931 | 13 | 153 | 0.0 | 0.0 | 0.00 | 0.00 | 0.00 | 47 | 1015.9 |
| 20260507232426 | 13 | 165 | 0.0 | 0.0 | 0.00 | 0.00 | 0.00 | 48 | 1015.8 |
| 20260507231924 | 13 | 139 | 1.6 | 1.6 | 0.00 | 0.00 | 0.00 | 46 | 1015.9 |
| 20260507231420 | 13 | 148 | 0.0 | 1.6 | 0.00 | 0.00 | 0.00 | 45 | 1015.6 |
| 20260507230917 | 13 | 160 | 1.6 | 3.2 | 0.00 | 0.00 | 0.00 | 44 | 1015.7 |
| 20260507230415 | 13 | 141 | 0.0 | 0.0 | 0.00 | 0.00 | 0.00 | 44 | 1015.6 |
| 20260507225914 | 13 | 137 | 0.0 | 0.0 | 0.00 | 0.00 | 0.00 | 43 | 1015.7 |
| 20260507225411 | 14 | 175 | 4.8 | 4.8 | 0.00 | 0.00 | 0.00 | 43 | 1015.9 |
| 20260507224907 | 14 | 152 | 0.0 | 0.0 | 0.00 | 0.00 | 0.00 | 43 | 1015.8 |
| 20260507224403 | 14 | 113 | 0.0 | 0.0 | 0.00 | 0.00 | 0.00 | 43 | 1015.9 |
| 20260507223900 | 15 | 89 | 3.2 | 4.8 | 0.00 | 0.00 | 0.00 | 47 | 1016.0 |
| 20260507223356 | 15 | 166 | 4.8 | 8.0 | 0.00 | 0.00 | 0.00 | 43 | 1016.2 |
| 20260507222854 | 15 | 194 | 4.8 | 8.0 | 0.00 | 0.00 | 0.00 | 41 | 1015.9 |
| 20260507222349 | 15 | 6 | 3.2 | 8.0 | 0.00 | 0.00 | 0.00 | 42 | 1016.2 |
| 20260507221847 | 16 | 335 | 4.8 | 9.7 | 0.00 | 0.00 | 0.00 | 42 | 1016.1 |
| 20260507221343 | 15 | 155 | 0.0 | 0.0 | 0.00 | 0.00 | 0.00 | 43 | 1016.0 |
| 20260507220839 | 15 | 60 | 8.0 | 11.3 | 0.00 | 0.00 | 0.00 | 42 | 1015.9 |
| 20260507220338 | 15 | 164 | 1.6 | 4.8 | 0.00 | 0.00 | 0.00 | 42 | 1015.8 |
| 20260507215833 | 13 | 155 | 0.0 | 0.0 | 0.00 | 0.00 | 0.00 | 48 | 1016.3 |
| 20260507215331 | 13 | 130 | 0.0 | 0.0 | 0.00 | 0.00 | 0.00 | 47 | 1016.1 |
| 20260507214828 | 13 | 181 | 4.8 | 8.0 | 0.00 | 0.00 | 0.00 | 47 | 1016.0 |
| 20260507214325 | 14 | 132 | 3.2 | 3.2 | 0.00 | 0.00 | 0.00 | 45 | 1016.0 |
| 20260507213820 | 15 | 149 | 0.0 | 0.0 | 0.00 | 0.00 | 0.00 | 47 | 1015.9 |
| 20260507213317 | 15 | 153 | 4.8 | 11.3 | 0.00 | 0.00 | 0.00 | 43 | 1015.8 |
| 20260507212814 | 15 | 117 | 0.0 | 1.6 | 0.00 | 0.00 | 0.00 | 47 | 1015.9 |
| 20260507212310 | 15 | 160 | 1.6 | 3.2 | 0.00 | 0.00 | 0.00 | 41 | 1016.0 |
| 20260507211807 | 15 | 287 | 4.8 | 8.0 | 0.00 | 0.00 | 0.00 | 40 | 1015.9 |
| 20260507211303 | 15 | 130 | 4.8 | 9.7 | 0.00 | 0.00 | 0.00 | 40 | 1015.7 |
| 20260507210800 | 15 | 180 | 0.0 | 1.6 | 0.00 | 0.00 | 0.00 | 41 | 1016.1 |
| 20260507210257 | 15 | 185 | 6.4 | 9.7 | 0.00 | 0.00 | 0.00 | 42 | 1016.0 |
| 20260507205753 | 15 | 38 | 3.2 | 8.0 | 0.00 | 0.00 | 0.00 | 44 | 1015.9 |
| 20260507205251 | 15 | 150 | 0.0 | 0.0 | 0.00 | 0.00 | 0.00 | 44 | 1015.7 |
| 20260507204747 | 15 | 177 | 3.2 | 4.8 | 0.00 | 0.00 | 0.00 | 44 | 1015.8 |
| 20260507204245 | 15 | 178 | 4.8 | 4.8 | 0.00 | 0.00 | 0.00 | 44 | 1015.6 |
| 20260507203742 | 15 | 25 | 4.8 | 11.3 | 0.00 | 0.00 | 0.00 | 46 | 1015.6 |
| 20260507203239 | 15 | 195 | 6.4 | 8.0 | 0.00 | 0.00 | 0.00 | 43 | 1015.5 |
| 20260507202735 | 15 | 153 | 3.2 | 3.2 | 0.00 | 0.00 | 0.00 | 45 | 1015.6 |
| 20260507202232 | 15 | 71 | 3.2 | 3.2 | 0.00 | 0.00 | 0.00 | 45 | 1015.6 |
| 20260507201727 | 14 | 344 | 4.8 | 4.8 | 0.00 | 0.00 | 0.00 | 46 | 1015.9 |
| 20260507201224 | 15 | 178 | 4.8 | 4.8 | 0.00 | 0.00 | 0.00 | 47 | 1015.7 |
| 20260507200720 | 15 | 100 | 4.8 | 9.7 | 0.00 | 0.00 | 0.00 | 48 | 1015.9 |
| 20260507200216 | 14 | 340 | 6.4 | 8.0 | 0.00 | 0.00 | 0.00 | 44 | 1016.1 |
| 20260507195713 | 13 | 150 | 6.4 | 9.7 | 0.00 | 0.00 | 0.00 | 45 | 1015.9 |
| 20260507195210 | 15 | 152 | 4.8 | 4.8 | 0.00 | 0.00 | 0.00 | 45 | 1015.8 |
| 20260507194707 | 15 | 21 | 3.2 | 4.8 | 0.00 | 0.00 | 0.00 | 46 | 1016.0 |
| 20260507194203 | 13 | 215 | 4.8 | 4.8 | 0.00 | 0.00 | 0.00 | 49 | 1015.9 |
| 20260507193700 | 14 | 146 | 0.0 | 1.6 | 0.00 | 0.00 | 0.00 | 46 | 1015.7 |
| 20260507193156 | 15 | 136 | 0.0 | 1.6 | 0.00 | 0.00 | 0.00 | 49 | 1015.9 |
| 20260507192652 | 15 | 129 | 1.6 | 3.2 | 0.00 | 0.00 | 0.00 | 51 | 1016.0 |
| 20260507192150 | 15 | 335 | 1.6 | 4.8 | 0.00 | 0.00 | 0.00 | 53 | 1016.0 |
| 20260507191645 | 15 | 150 | 4.8 | 4.8 | 0.00 | 0.00 | 0.00 | 45 | 1015.9 |
| 20260507191142 | 15 | 157 | 0.0 | 0.0 | 0.00 | 0.00 | 0.00 | 49 | 1016.0 |
| 20260507190639 | 15 | 184 | 1.6 | 3.2 | 0.00 | 0.00 | 0.00 | 46 | 1016.0 |
| 20260507190138 | 15 | 352 | 9.7 | 11.3 | 0.00 | 0.00 | 0.00 | 45 | 1016.1 |
| 20260507185636 | 15 | 186 | 0.0 | 1.6 | 0.00 | 0.00 | 0.00 | 47 | 1016.2 |
| 20260507185132 | 15 | 172 | 1.6 | 3.2 | 0.00 | 0.00 | 0.00 | 53 | 1016.1 |
| 20260507184630 | 15 | 58 | 6.4 | 9.7 | 0.00 | 0.00 | 0.00 | 45 | 1016.2 |
| 20260507184128 | 15 | 142 | 0.0 | 0.0 | 0.00 | 0.00 | 0.00 | 49 | 1016.0 |
| 20260507183624 | 14 | 356 | 4.8 | 11.3 | 0.00 | 0.00 | 0.00 | 49 | 1016.3 |
| 20260507183121 | 15 | 345 | 6.4 | 9.7 | 0.00 | 0.00 | 0.00 | 46 | 1016.4 |
| 20260507182618 | 14 | 119 | 1.6 | 4.8 | 0.00 | 0.00 | 0.00 | 52 | 1016.6 |
| 20260507182114 | 14 | 13 | 4.8 | 4.8 | 0.00 | 0.00 | 0.00 | 47 | 1016.2 |
| 20260507181611 | 15 | 307 | 6.4 | 9.7 | 0.00 | 0.00 | 0.00 | 45 | 1016.6 |
| 20260507181107 | 15 | 79 | 0.0 | 1.6 | 0.00 | 0.00 | 0.00 | 46 | 1016.3 |
| 20260507180603 | 15 | 90 | 4.8 | 4.8 | 0.00 | 0.00 | 0.00 | 49 | 1016.4 |
| 20260507180101 | 14 | 148 | 0.0 | 0.0 | 0.00 | 0.00 | 0.00 | 49 | 1016.3 |
| 20260507175556 | 13 | 160 | 4.8 | 8.0 | 0.00 | 0.00 | 0.00 | 54 | 1016.5 |
| 20260507175054 | 13 | 155 | 0.0 | 1.6 | 0.00 | 0.00 | 0.00 | 48 | 1016.3 |
| 20260507174551 | 13 | 303 | 1.6 | 4.8 | 0.00 | 0.00 | 0.00 | 51 | 1016.4 |
| 20260507174049 | 13 | 159 | 6.4 | 8.0 | 0.00 | 0.00 | 0.00 | 47 | 1016.6 |
| 20260507173545 | 14 | 127 | 0.0 | 1.6 | 0.00 | 0.00 | 0.00 | 50 | 1016.6 |
| 20260507173043 | 13 | 155 | 1.6 | 3.2 | 0.00 | 0.00 | 0.00 | 53 | 1016.3 |
| 20260507172538 | 14 | 155 | 1.6 | 3.2 | 0.00 | 0.00 | 0.00 | 53 | 1016.8 |
| 20260507172036 | 13 | 177 | 4.8 | 4.8 | 0.00 | 0.00 | 0.00 | 48 | 1017.0 |
| 20260507171531 | 13 | 144 | 3.2 | 3.2 | 0.00 | 0.00 | 0.00 | 49 | 1016.9 |
| 20260507171028 | 13 | 243 | 1.6 | 4.8 | 0.00 | 0.00 | 0.00 | 54 | 1016.8 |
| 20260507170525 | 13 | 95 | 3.2 | 3.2 | 0.00 | 0.00 | 0.00 | 53 | 1017.2 |
| 20260507170022 | 13 | 199 | 3.2 | 3.2 | 0.00 | 0.00 | 0.00 | 56 | 1017.1 |
| 20260507165518 | 13 | 98 | 1.6 | 3.2 | 0.00 | 0.00 | 0.00 | 54 | 1016.8 |
| 20260507165014 | 13 | 167 | 3.2 | 4.8 | 0.00 | 0.00 | 0.00 | 49 | 1017.3 |
| 20260507164511 | 13 | 52 | 1.6 | 3.2 | 0.00 | 0.00 | 0.00 | 51 | 1017.0 |
| 20260507164008 | 13 | 134 | 4.8 | 11.3 | 0.00 | 0.00 | 0.00 | 51 | 1017.3 |
| 20260507163505 | 13 | 179 | 4.8 | 4.8 | 0.00 | 0.00 | 0.00 | 51 | 1017.2 |
| 20260507163003 | 13 | 109 | 4.8 | 8.0 | 0.00 | 0.00 | 0.00 | 50 | 1017.2 |
| 20260507162457 | 13 | 192 | 3.2 | 4.8 | 0.00 | 0.00 | 0.00 | 52 | 1017.0 |
| 20260507161954 | 13 | 358 | 3.2 | 4.8 | 0.00 | 0.00 | 0.00 | 53 | 1017.0 |
| 20260507161451 | 13 | 153 | 0.0 | 1.6 | 0.00 | 0.00 | 0.00 | 49 | 1017.0 |
| 20260507160948 | 13 | 154 | 1.6 | 4.8 | 0.00 | 0.00 | 0.00 | 54 | 1017.0 |
| 20260507160443 | 13 | 166 | 1.6 | 3.2 | 0.00 | 0.00 | 0.00 | 50 | 1016.9 |
| 20260507155939 | 13 | 126 | 3.2 | 4.8 | 0.00 | 0.00 | 0.00 | 48 | 1017.0 |
| 20260507155436 | 13 | 165 | 1.6 | 3.2 | 0.00 | 0.00 | 0.00 | 53 | 1017.0 |